Presque Isle, ME

7:22 PM EDT on May 26, 2017 (GMT -0400)
Northern Maine Regional At Presque Isle

Weather History for KPQI - November, 2013

Change the Weather History Date:

Wednesday, November 20, 2013

  Actual Average Record
Temperature  
Mean Temperature 26 °F -  
Max Temperature 30 °F 34 °F 68 °F (1953)
Min Temperature 21 °F 21 °F -8 °F (1933)
Degree Days  
Heating Degree Days 40    
Moisture  
Dew Point 4 °F    
Average Humidity 40    
Maximum Humidity 63    
Minimum Humidity 27    
Precipitation  
Precipitation 0.00 in - - ()
Sea Level Pressure  
Sea Level Pressure 30.37 in    
Wind  
Wind Speed 16 mph (NW)    
Max Wind Speed 28 mph    
Max Gust Speed 33 mph    
Visibility 10 miles    
Events      
Averages and records for this station are not official NWS values.
T = Trace of Precipitation, MM = Missing Value Source: NWS Daily Summary

Daily Weather History Graph

Daily Weather History Graph

Search for Another Location

Airport or City:

Trip Planner

Search our weather history database for the weather conditions in past years. The results will help you decide how hot, cold, wet, or windy it might be!

Date:

Astronomy

Nov. 20, 2013 Rise Set
Actual Time 6:41 AM EST 3:53 PM EST
Civil Twilight 6:08 AM EST 4:26 PM EST
Nautical Twilight 5:31 AM EST 5:03 PM EST
Astronomical Twilight 4:55 AM EST 5:39 PM EST
Moon 6:33 PM EST (11/20) 9:05 AM EST (11/20)
Length of Visible Light 10h 18m
Length of Day
9h 11m
Waning Gibbous, 91% of the Moon is Illuminated
Nov 20
Waning Gibbous
Nov 25
Last Quarter
Dec 2
New
Dec 9
First Quarter
Dec 17
Full

Hourly Weather History & Observations

Time (EST) Temp. Windchill Dew Point Humidity Pressure Visibility Wind Dir Wind Speed Gust Speed Precip Events Conditions
12:15 AM 28.4 °F 15.8 °F 8.6 °F 43% 30.03 in 10.0 mi NW 18.4 mph 31.1 mph N/A   Overcast
12:35 AM 28.4 °F 15.1 °F 8.6 °F 43% 30.04 in 10.0 mi NW 20.7 mph 31.1 mph N/A   Overcast
12:55 AM 26.6 °F 13.8 °F 8.6 °F 47% 30.04 in 10.0 mi NW 17.3 mph 26.5 mph N/A   Mostly Cloudy
1:15 AM 26.6 °F 12.7 °F 8.6 °F 47% 30.06 in 10.0 mi NW 20.7 mph 33.4 mph N/A   Mostly Cloudy
1:35 AM 26.6 °F 12.4 °F 6.8 °F 43% 30.08 in 10.0 mi NW 21.9 mph 32.2 mph N/A   Scattered Clouds
1:55 AM 26.6 °F 16.8 °F 5.0 °F 40% 30.09 in 10.0 mi NW 10.4 mph 25.3 mph N/A   Clear
2:15 AM 26.6 °F 15.2 °F 5.0 °F 40% 30.10 in 10.0 mi NW 13.8 mph 23.0 mph N/A   Clear
2:35 AM 24.8 °F 12.9 °F 5.0 °F 43% 30.11 in 10.0 mi NW 13.8 mph 27.6 mph N/A   Clear
2:55 AM 24.8 °F 11.5 °F 5.0 °F 43% 30.13 in 10.0 mi NNW 17.3 mph 33.4 mph N/A   Clear
3:15 AM 24.8 °F 11.9 °F 5.0 °F 43% 30.15 in 10.0 mi NW 16.1 mph 33.4 mph N/A   Clear
3:35 AM 24.8 °F 10.0 °F 3.2 °F 40% 30.16 in 10.0 mi NNW 21.9 mph 29.9 mph N/A   Clear
3:55 AM 24.8 °F 12.4 °F 3.2 °F 40% 30.17 in 10.0 mi NW 15.0 mph 28.8 mph N/A   Clear
4:15 AM 24.8 °F 8.4 °F 3.2 °F 40% 30.19 in 10.0 mi NNW 27.6 mph 33.4 mph N/A   Clear
4:35 AM 24.8 °F 11.1 °F 3.2 °F 40% 30.20 in 10.0 mi NW 18.4 mph 31.1 mph N/A   Clear
4:55 AM 23.0 °F 9.2 °F 3.2 °F 43% 30.21 in 10.0 mi NW 17.3 mph 28.8 mph N/A   Clear
5:15 AM 23.0 °F 7.6 °F 3.2 °F 43% 30.23 in 10.0 mi NW 21.9 mph 28.8 mph N/A   Clear
5:35 AM 23.0 °F 9.6 °F 1.4 °F 39% 30.24 in 10.0 mi NW 16.1 mph 28.8 mph N/A   Clear
5:55 AM 23.0 °F 6.9 °F 1.4 °F 39% 30.25 in 10.0 mi NNW 24.2 mph 29.9 mph N/A   Clear
6:15 AM 21.2 °F 7.3 °F 1.4 °F 42% 30.27 in 10.0 mi NW 16.1 mph 29.9 mph N/A   Clear
6:35 AM 21.2 °F 6.4 °F 1.4 °F 42% 30.28 in 10.0 mi NW 18.4 mph 31.1 mph N/A   Clear
6:55 AM 21.2 °F 6.8 °F 1.4 °F 42% 30.30 in 10.0 mi NW 17.3 mph 26.5 mph N/A   Clear
7:15 AM 21.2 °F 8.3 °F 1.4 °F 42% 30.32 in 10.0 mi NW 13.8 mph 21.9 mph N/A   Clear
7:35 AM 23.0 °F 11.7 °F 1.4 °F 39% 30.33 in 10.0 mi NW 11.5 mph 23.0 mph N/A   Clear
7:55 AM 23.0 °F 10.1 °F 1.4 °F 39% 30.34 in 10.0 mi NNW 15.0 mph - N/A   Clear
8:15 AM 24.8 °F 11.1 °F 3.2 °F 40% 30.35 in 10.0 mi NNW 18.4 mph 27.6 mph N/A   Clear
8:35 AM 24.8 °F 10.3 °F 3.2 °F 40% 30.36 in 10.0 mi NNW 20.7 mph 27.6 mph N/A   Clear
8:55 AM 24.8 °F 11.1 °F 3.2 °F 40% 30.37 in 10.0 mi NNW 18.4 mph 24.2 mph N/A   Clear
9:15 AM 24.8 °F 10.7 °F 1.4 °F 36% 30.38 in 10.0 mi NNW 19.6 mph 27.6 mph N/A   Clear
9:35 AM 26.6 °F 14.7 °F 1.4 °F 34% 30.38 in 10.0 mi NNW 15.0 mph 28.8 mph N/A   Clear
9:55 AM 26.6 °F 14.7 °F 1.4 °F 34% 30.39 in 10.0 mi NNW 15.0 mph 26.5 mph N/A   Clear
10:15 AM 26.6 °F 13.4 °F 1.4 °F 34% 30.40 in 10.0 mi NW 18.4 mph 25.3 mph N/A   Clear
10:35 AM 28.4 °F 15.8 °F 1.4 °F 31% 30.40 in 10.0 mi NW 18.4 mph 25.3 mph N/A   Clear
10:55 AM 28.4 °F 14.4 °F 1.4 °F 31% 30.40 in 10.0 mi NNW 23.0 mph 28.8 mph N/A   Clear
11:15 AM 28.4 °F 14.7 °F 1.4 °F 31% 30.40 in 10.0 mi NNW 21.9 mph - N/A   Clear
11:35 AM 28.4 °F 15.4 °F 1.4 °F 31% 30.40 in 10.0 mi NNW 19.6 mph 27.6 mph N/A   Clear
11:55 AM 30.2 °F 18.9 °F 1.4 °F 29% 30.41 in 10.0 mi NNW 16.1 mph 25.3 mph N/A   Clear
12:15 PM 30.2 °F 16.8 °F 1.4 °F 29% 30.41 in 10.0 mi NNW 23.0 mph 28.8 mph N/A   Clear
12:35 PM 30.2 °F 18.9 °F 1.4 °F 29% 30.41 in 10.0 mi NW 16.1 mph 24.2 mph N/A   Clear
12:55 PM 30.2 °F 17.8 °F -0.4 °F 27% 30.41 in 10.0 mi NW 19.6 mph 29.9 mph N/A   Clear
1:15 PM 30.2 °F 18.1 °F -0.4 °F 27% 30.41 in 10.0 mi NNW 18.4 mph 27.6 mph N/A   Clear
1:35 PM 30.2 °F 18.1 °F -0.4 °F 27% 30.42 in 10.0 mi NNW 18.4 mph 27.6 mph N/A   Clear
1:55 PM 30.2 °F 18.1 °F -0.4 °F 27% 30.42 in 10.0 mi NNW 18.4 mph 29.9 mph N/A   Clear
2:15 PM 30.2 °F 17.4 °F -0.4 °F 27% 30.42 in 10.0 mi NNW 20.7 mph 29.9 mph N/A   Clear
2:35 PM 30.2 °F 19.3 °F -0.4 °F 27% 30.44 in 10.0 mi NNW 15.0 mph 26.5 mph N/A   Clear
2:55 PM 30.2 °F 19.8 °F -0.4 °F 27% 30.45 in 10.0 mi NW 13.8 mph 20.7 mph N/A   Clear
3:15 PM 28.4 °F 18.5 °F -0.4 °F 29% 30.45 in 10.0 mi NW 11.5 mph 24.2 mph N/A   Clear
3:35 PM 28.4 °F 18.0 °F -0.4 °F 29% 30.46 in 10.0 mi NW 12.7 mph 18.4 mph N/A   Clear
3:55 PM 28.4 °F 18.5 °F 1.4 °F 31% 30.47 in 10.0 mi NNW 11.5 mph 20.7 mph N/A   Clear
4:15 PM 28.4 °F 20.4 °F 1.4 °F 31% 30.48 in 10.0 mi NW 8.1 mph - N/A   Clear
4:35 PM 26.6 °F 18.2 °F 1.4 °F 34% 30.49 in 10.0 mi NW 8.1 mph - N/A   Clear
4:55 PM 26.6 °F 19.1 °F 1.4 °F 34% 30.49 in 10.0 mi NW 6.9 mph - N/A   Clear
5:15 PM 26.6 °F 19.1 °F 1.4 °F 34% 30.49 in 10.0 mi NW 6.9 mph - N/A   Clear
5:35 PM 26.6 °F 20.0 °F 3.2 °F 37% 30.50 in 10.0 mi NW 5.8 mph - N/A   Clear
5:55 PM 26.6 °F 22.6 °F 3.2 °F 37% 30.51 in 10.0 mi NW 3.5 mph - N/A   Clear
6:15 PM 26.6 °F 19.1 °F 5.0 °F 40% 30.51 in 10.0 mi WNW 6.9 mph - N/A   Clear
6:35 PM 24.8 °F 17.9 °F 5.0 °F 43% 30.52 in 10.0 mi WNW 5.8 mph - N/A   Clear
6:55 PM 24.8 °F 16.9 °F 5.0 °F 43% 30.52 in 10.0 mi NW 6.9 mph - N/A   Clear
7:15 PM 24.8 °F 17.9 °F 6.8 °F 46% 30.53 in 10.0 mi WNW 5.8 mph - N/A   Clear
7:35 PM 24.8 °F 17.9 °F 6.8 °F 46% 30.54 in 10.0 mi WNW 5.8 mph - N/A   Clear
7:55 PM 24.8 °F - 6.8 °F 46% 30.54 in 10.0 mi Calm Calm - N/A   Clear
8:15 PM 23.0 °F 18.4 °F 6.8 °F 50% 30.54 in 10.0 mi WNW 3.5 mph - N/A   Clear
8:35 PM 24.8 °F 20.5 °F 6.8 °F 46% 30.54 in 10.0 mi NW 3.5 mph - N/A   Clear
8:55 PM 24.8 °F 20.5 °F 8.6 °F 50% 30.55 in 10.0 mi NW 3.5 mph - N/A   Clear
9:15 PM 23.0 °F 14.7 °F 8.6 °F 54% 30.55 in 10.0 mi WNW 6.9 mph - N/A   Clear
9:35 PM 23.0 °F 14.7 °F 8.6 °F 54% 30.55 in 10.0 mi WNW 6.9 mph - N/A   Clear
9:55 PM 23.0 °F 15.8 °F 8.6 °F 54% 30.55 in 10.0 mi WNW 5.8 mph - N/A   Clear
10:15 PM 23.0 °F 13.9 °F 8.6 °F 54% 30.56 in 10.0 mi WNW 8.1 mph - N/A   Clear
10:35 PM 21.2 °F 14.9 °F 8.6 °F 58% 30.57 in 10.0 mi West 4.6 mph - N/A   Clear
10:55 PM 21.2 °F 16.4 °F 8.6 °F 58% 30.57 in 10.0 mi West 3.5 mph - N/A   Clear
11:15 PM 21.2 °F - 8.6 °F 58% 30.58 in 10.0 mi Calm Calm - N/A   Clear
11:35 PM 21.2 °F - 8.6 °F 58% 30.58 in 10.0 mi Calm Calm - N/A   Clear
11:55 PM 21.2 °F 16.4 °F 10.4 °F 63% 30.58 in 10.0 mi SW 3.5 mph - N/A   Clear